BEIDOU-3 M20

Last updated on Oct. 24, 2020, 5:55 a.m. UTC

1 44865U 19090B   20297.85801772  .00000040  00000-0  10000-3 0  9992
2 44865  55.1202 131.8684 0012387 280.8295  50.0269  1.86231943  5802
UTC
Height (km)
Latitude
Longitude
Inclination
Orbital Period
UTC large
Height (km)
Speed (km/s)
/
Latitude / Longitude
Inclination (degrees)
Orbital Period (minutes)
Azimuth
Elevation
Range (km)
Doppler Factor
iOS Compass Heading
iOS Angle

Next 30 passes for location: Hong Kong

Rise time Rise Azimuth (degrees) Set time Set Azimuth (degrees) Duration Max altitude (degrees)

No matching passes for this satellites